When you browse on this site, cookies collect data to enhance your experience and personalize the content and advertising you see.
Visit our Privacy Policy to learn more. By continuing to use the site, you agree to this use of cookies and data.
  • In Hungary
  • List of Countries
  • For 7 days
  • Water Temperature
  • Weather Map
  • News
  • Weather Widgets
  • user-avatar
    Login

    Hourly Weather Mynbulak

    Today, 15 December, Sunday

    Time Temperature Precipitation Wind Pressure Humidity
    00:00 -4°C° 0 mm 0 mps 743 mmHg 79%
    01:00 -4°C° 0 mm 0 mps 744 mmHg 80%
    02:00 -4°C° 0 mm 0 mps 744 mmHg 80%
    03:00 -4°C° 0 mm 0 mps 744 mmHg 80%
    04:00 -3°C° 0 mm 1 mps 744 mmHg 79%
    05:00 -3°C° 0 mm 1 mps 744 mmHg 78%
    06:00 -3°C° 0 mm 1 mps 744 mmHg 77%
    07:00 -5°C° 0 mm 2 mps 744 mmHg 75%
    08:00 -6°C° 0 mm 3 mps 744 mmHg 74%
    09:00 -4°C° 0 mm 3 mps 744 mmHg 68%
    10:00 -3°C° 0 mm 4 mps 744 mmHg 62%
    11:00 -1°C° 0 mm 4 mps 744 mmHg 56%
    12:00 0°C° 0 mm 4 mps 744 mmHg 55%
    13:00 0°C° 0 mm 5 mps 744 mmHg 54%
    14:00 +1°C° 0 mm 5 mps 743 mmHg 53%
    15:00 0°C° 0 mm 5 mps 743 mmHg 58%
    16:00 -3°C° 0 mm 6 mps 743 mmHg 63%
    17:00 -4°C° 0 mm 6 mps 743 mmHg 69%
    18:00 -4°C° 0 mm 6 mps 743 mmHg 70%
    19:00 -4°C° 0 mm 6 mps 743 mmHg 71%
    20:00 -4°C° 0 mm 7 mps 743 mmHg 73%
    21:00 -6°C° 0 mm 7 mps 743 mmHg 74%
    22:00 -6°C° 0 mm 7 mps 743 mmHg 74%
    23:00 -5°C° 0 mm 6 mps 743 mmHg 75%

    Tomorrow, 16 December, Monday

    Time Temperature Precipitation Wind Pressure Humidity
    00:00 -5°C° 0 mm 6 mps 743 mmHg 76%
    01:00 -5°C° 0 mm 6 mps 743 mmHg 76%
    02:00 -5°C° 0 mm 5 mps 743 mmHg 77%
    03:00 -5°C° 0 mm 5 mps 742 mmHg 77%
    04:00 -5°C° 0 mm 5 mps 742 mmHg 77%
    05:00 -6°C° 0 mm 5 mps 742 mmHg 78%
    06:00 -6°C° 0 mm 5 mps 742 mmHg 77%
    07:00 -6°C° 0 mm 5 mps 742 mmHg 77%
    08:00 -6°C° 0 mm 5 mps 742 mmHg 77%
    09:00 -3°C° 0 mm 4 mps 742 mmHg 69%
    10:00 -1°C° 0 mm 4 mps 743 mmHg 62%
    11:00 0°C° 0 mm 4 mps 743 mmHg 54%
    12:00 +1°C° 0 mm 4 mps 742 mmHg 51%
    13:00 +3°C° 0 mm 4 mps 742 mmHg 48%
    14:00 +3°C° 0 mm 5 mps 742 mmHg 45%
    15:00 +1°C° 0 mm 5 mps 741 mmHg 50%
    16:00 0°C° 0 mm 5 mps 741 mmHg 55%
    17:00 -2°C° 0 mm 6 mps 741 mmHg 61%
    18:00 -3°C° 0 mm 6 mps 741 mmHg 62%
    19:00 -2°C° 0 mm 5 mps 741 mmHg 63%
    20:00 -2°C° 0 mm 5 mps 741 mmHg 64%
    21:00 -3°C° 0 mm 4 mps 741 mmHg 63%
    22:00 -3°C° 0 mm 4 mps 741 mmHg 62%
    23:00 -3°C° 0 mm 4 mps 741 mmHg 61%

    Day after tomorrow, 17 December, Tuesday

    Time Temperature Precipitation Wind Pressure Humidity
    00:00 -2°C° 0 mm 3 mps 741 mmHg 60%
    01:00 -2°C° 0 mm 3 mps 741 mmHg 60%
    02:00 -2°C° 0 mm 3 mps 741 mmHg 59%
    03:00 -4°C° 0 mm 3 mps 741 mmHg 56%
    04:00 -3°C° 0 mm 2 mps 741 mmHg 53%
    05:00 -3°C° 0 mm 2 mps 740 mmHg 50%
    06:00 -3°C° 0 mm 2 mps 741 mmHg 47%
    07:00 -1°C° 0 mm 1 mps 741 mmHg 43%
    08:00 -1°C° 0 mm 1 mps 741 mmHg 40%
    09:00 +2°C° 0 mm 1 mps 741 mmHg 33%
    10:00 +4°C° 0 mm 1 mps 741 mmHg 26%
    11:00 +7°C° 0 mm 1 mps 741 mmHg 19%
    12:00 +8°C° 0 mm 1 mps 741 mmHg 18%
    13:00 +9°C° 0 mm 1 mps 740 mmHg 17%
    14:00 +9°C° 0 mm 1 mps 740 mmHg 16%
    15:00 +7°C° 0 mm 1 mps 739 mmHg 19%
    16:00 +5°C° 0 mm 1 mps 739 mmHg 22%
    17:00 +3°C° 0 mm 1 mps 739 mmHg 25%
    18:00 +4°C° 0 mm 1 mps 738 mmHg 24%
    19:00 +4°C° 0 mm 1 mps 738 mmHg 24%
    20:00 +4°C° 0 mm 1 mps 738 mmHg 23%
    21:00 +3°C° 0 mm 1 mps 738 mmHg 24%
    22:00 +3°C° 0 mm 1 mps 737 mmHg 25%
    23:00 +3°C° 0 mm 1 mps 737 mmHg 26%

    18 December, Wednesday

    Time Temperature Precipitation Wind Pressure Humidity
    00:00 +3°C° 0 mm 1 mps 737 mmHg 27%
    01:00 +2°C° 0 mm 1 mps 737 mmHg 28%
    02:00 +2°C° 0 mm 1 mps 737 mmHg 29%
    03:00 +2°C° 0 mm 1 mps 737 mmHg 31%
    04:00 +2°C° 0 mm 1 mps 737 mmHg 33%
    05:00 +2°C° 0 mm 1 mps 736 mmHg 35%
    06:00 +2°C° 0 mm 1 mps 737 mmHg 37%
    07:00 +2°C° 0 mm 1 mps 737 mmHg 39%
    08:00 +1°C° 0 mm 1 mps 737 mmHg 41%
    09:00 +2°C° 0 mm 2 mps 737 mmHg 39%
    10:00 +2°C° 0 mm 3 mps 738 mmHg 37%
    11:00 +4°C° 0 mm 4 mps 738 mmHg 34%
    12:00 +3°C° 0 mm 5 mps 738 mmHg 35%
    13:00 +3°C° 0 mm 6 mps 738 mmHg 35%
    14:00 +4°C° 0 mm 6 mps 738 mmHg 36%
    15:00 +2°C° 0 mm 5 mps 739 mmHg 41%
    16:00 +1°C° 0 mm 5 mps 739 mmHg 45%
    17:00 0°C° 0 mm 4 mps 740 mmHg 50%
    18:00 0°C° 0 mm 4 mps 740 mmHg 51%
    19:00 0°C° 0 mm 3 mps 741 mmHg 52%
    20:00 0°C° 0 mm 3 mps 741 mmHg 54%
    21:00 0°C° 0 mm 3 mps 741 mmHg 56%
    22:00 -1°C° 0 mm 3 mps 741 mmHg 57%
    23:00 -1°C° 0 mm 3 mps 741 mmHg 59%

    19 December, Thursday

    Time Temperature Precipitation Wind Pressure Humidity
    00:00 -1°C° 0 mm 2 mps 741 mmHg 61%
    01:00 -1°C° 0 mm 2 mps 741 mmHg 64%
    02:00 -1°C° 0 mm 2 mps 740 mmHg 66%
    03:00 -1°C° 0 mm 2 mps 740 mmHg 65%
    04:00 -1°C° 0 mm 2 mps 740 mmHg 65%
    05:00 -1°C° 0 mm 2 mps 740 mmHg 65%
    06:00 -1°C° 0 mm 3 mps 740 mmHg 65%
    07:00 -1°C° 0 mm 3 mps 740 mmHg 65%
    08:00 -2°C° 0 mm 4 mps 740 mmHg 65%
    09:00 -1°C° 0 mm 5 mps 740 mmHg 61%
    10:00 -1°C° 0 mm 6 mps 740 mmHg 57%
    11:00 +1°C° 0 mm 6 mps 740 mmHg 53%
    12:00 +2°C° 0 mm 7 mps 739 mmHg 52%
    13:00 +3°C° 0 mm 7 mps 739 mmHg 51%
    14:00 +3°C° 0 mm 7 mps 739 mmHg 50%
    15:00 +2°C° 0.1 mm 6 mps 739 mmHg 57%
    16:00 +2°C° 0.1 mm 5 mps 738 mmHg 65%
    17:00 +1°C° 0.1 mm 4 mps 738 mmHg 72%
    18:00 +1°C° 0.3 mm 4 mps 738 mmHg 76%
    19:00 0°C° 0.3 mm 4 mps 738 mmHg 81%
    20:00 0°C° 0.3 mm 4 mps 739 mmHg 85%
    21:00 0°C° 0.6 mm 4 mps 739 mmHg 88%
    22:00 0°C° 0.6 mm 4 mps 738 mmHg 90%
    23:00 0°C° 0.6 mm 4 mps 738 mmHg 93%

    20 December, Friday

    Time Temperature Precipitation Wind Pressure Humidity
    00:00 0°C° 0.6 mm 4 mps 738 mmHg 91%
    01:00 0°C° 0.6 mm 4 mps 738 mmHg 89%
    02:00 0°C° 0.6 mm 4 mps 738 mmHg 87%
    03:00 0°C° 0.3 mm 4 mps 738 mmHg 86%
    04:00 +2°C° 0.3 mm 3 mps 738 mmHg 86%
    05:00 +2°C° 0.3 mm 3 mps 738 mmHg 85%
    06:00 +2°C° 0.2 mm 3 mps 738 mmHg 84%
    07:00 +2°C° 0.2 mm 3 mps 738 mmHg 82%
    08:00 +2°C° 0.2 mm 3 mps 738 mmHg 80%
    09:00 +2°C° 0.1 mm 3 mps 738 mmHg 76%
    10:00 +3°C° 0.1 mm 3 mps 738 mmHg 72%
    11:00 +3°C° 0.1 mm 3 mps 738 mmHg 68%
    12:00 +4°C° 0 mm 4 mps 737 mmHg 61%
    13:00 +5°C° 0 mm 5 mps 737 mmHg 55%
    14:00 +5°C° 0 mm 6 mps 736 mmHg 48%
    15:00 +6°C° 0 mm 5 mps 736 mmHg 50%
    16:00 +5°C° 0 mm 5 mps 736 mmHg 52%
    17:00 +3°C° 0 mm 5 mps 736 mmHg 54%
    18:00 +3°C° 0 mm 5 mps 736 mmHg 57%
    19:00 +3°C° 0 mm 5 mps 736 mmHg 59%
    20:00 +2°C° 0 mm 5 mps 736 mmHg 62%
    21:00 +2°C° 0 mm 5 mps 736 mmHg 63%
    22:00 +2°C° 0 mm 6 mps 735 mmHg 63%
    23:00 +1°C° 0 mm 6 mps 735 mmHg 64%
    Show more